Starlink 32885

operational
NORAD ID: 62958 Int'l Des: 2025-029 Owner: SPXS Country: US Constellation: starlink
LEOCIRCULAR

Über Starlink 32885

Beschreibung wird geladen...

Live-Position

3D-Globus wird geladen...

Nächste Überflüge

Höhenverlauf

Altitude vs Time

uPlot chart will show altitude changes over time

Zweizeiliger Elementsatz

1 62958U 25029L 25305.17595787 .00050140 00000-0 16940-2 0 9994
2 62958 53.1597 107.1108 0001574 88.9216 271.1965 15.30193265 41675
Epoch: 1. Nov. 2025 • Age: 65 hours

Aktueller Status

Höhe 481.5 km
Geschwindigkeit 7.62 km/s
Subsatellitenpunkt -23.25°S, 71.19°W
Startdatum 11. Feb. 2025
Alter 0.7 years
Typ internet

Technische Details

Klassifizierung Payload
Masse 730.00 kg
Trockenmasse 700.00 kg
Gesamtmasse 730.00 kg
Länge 0.30 m
Durchmesser 4.10 m
Spannweite 29.00 m
Form Box + pan
Hersteller SPXS
Bus-Typ Starlink V2M
Phasenstatus In Orbit
Besitzer/Staat SPXS/US

Große Konstellationen

Loading constellations...